FW9813 Weather Reports


Display with metric or nautical units.
time (UTC)temp
F
wind
direction
speed
MPH
gust
MPH
rain 1hr
in
rain 24hr
in
rain mn
in
humidity
%
barometer
mb
20260507171549 52 342 1.0 5.0 0.00 0.00 0.00 34 1011.8
20260507170055 52 202 2.0 6.0 0.00 0.00 0.00 34 1012.0
20260507164553 52 332 1.0 7.0 0.00 0.00 0.00 34 1012.2
20260507163042 51 125 1.0 6.0 0.00 0.00 0.00 38 1012.4
20260507161556 51 105 1.0 5.0 0.00 0.00 0.00 37 1012.5
20260507160041 51 233 2.0 8.0 0.00 0.00 0.00 36 1012.8
20260507154542 51 163 2.0 7.0 0.00 0.00 0.00 42 1012.7
20260507153049 50 199 1.0 5.0 0.00 0.00 0.00 44 1012.7
20260507151542 49 192 0.0 6.0 0.00 0.00 0.00 46 1012.7
20260507150041 49 173 1.0 6.0 0.00 0.00 0.00 45 1012.7
20260507144546 48 346 1.0 4.0 0.00 0.00 0.00 46 1012.8
20260507143043 46 184 1.0 4.0 0.00 0.00 0.00 49 1012.8
20260507141607 46 235 2.0 5.0 0.00 0.00 0.00 50 1012.8
20260507140045 45 184 0.0 4.0 0.00 0.00 0.00 58 1012.9
20260507134545 44 120 1.0 6.0 0.00 0.00 0.00 58 1012.9
20260507133043 42 194 0.0 4.0 0.00 0.00 0.00 64 1013.0
20260507131541 40 129 0.0 3.0 0.00 0.00 0.00 69 1013.0
20260507130047 38 203 0.0 2.0 0.00 0.00 0.00 76 1013.3
20260507124537 35 0 0.0 2.0 0.00 0.00 0.00 84 1013.3
20260507123048 32 0 0.0 0.0 0.00 0.00 0.00 89 1013.3
20260507121544 29 0 0.0 0.0 0.00 0.00 0.00 90 1013.1
20260507120045 27 0 0.0 0.0 0.00 0.00 0.00 87 1013.1
20260507114543 28 0 0.0 0.0 0.00 0.00 0.00 87 1013.1
20260507113043 27 0 0.0 0.0 0.00 0.00 0.00 87 1013.2
20260507111538 28 0 0.0 0.0 0.00 0.00 0.00 86 1013.1
20260507110047 28 0 0.0 0.0 0.00 0.00 0.00 86 1013.1
20260507104543 28 0 0.0 0.0 0.00 0.00 0.00 85 1013.1
20260507103042 29 0 0.0 0.0 0.00 0.00 0.00 85 1013.4
20260507101538 29 0 0.0 0.0 0.00 0.00 0.00 85 1013.4
20260507100043 29 203 0.0 1.0 0.00 0.00 0.00 85 1013.2
20260507094537 29 0 0.0 0.0 0.00 0.00 0.00 85 1013.2
20260507093037 29 0 0.0 0.0 0.00 0.00 0.00 84 1013.3
20260507091545 29 0 0.0 0.0 0.00 0.00 0.00 84 1013.3
20260507090045 29 0 0.0 0.0 0.00 0.00 0.00 84 1013.3
20260507084541 29 0 0.0 0.0 0.00 0.00 0.00 84 1013.4
20260507083049 28 0 0.0 0.0 0.00 0.00 0.00 83 1013.5
20260507081549 28 0 0.0 0.0 0.00 0.00 0.00 82 1013.3
20260507080044 29 0 0.0 0.0 0.00 0.00 0.00 81 1013.4
20260507074543 29 0 0.0 0.0 0.00 0.00 0.00 81 1013.3
20260507073052 29 0 0.0 0.0 0.00 0.00 0.00 80 1013.3
20260507071542 30 0 0.0 0.0 0.00 0.00 0.00 78 1013.4
20260507070044 31 0 0.0 0.0 0.00 0.00 0.00 77 1013.6
20260507064552 31 0 0.0 0.0 0.00 0.00 0.00 76 1013.9
20260507063047 32 0 0.0 0.0 0.00 0.00 0.00 75 1013.9
20260507061540 33 0 0.0 0.0 0.00 0.00 0.00 73 1013.9
20260507060037 34 0 0.0 0.0 0.00 0.00 0.00 71 1014.1
20260507054543 35 0 0.0 0.0 0.00 0.00 0.00 68 1014.1
20260507053042 36 0 0.0 0.0 0.00 0.00 0.00 67 1014.2
20260507051542 37 0 0.0 0.0 0.00 0.00 0.00 64 1014.2
20260507050038 38 0 0.0 0.0 0.00 0.00 0.00 64 1014.3
20260507044541 38 0 0.0 0.0 0.00 0.00 0.00 63 1014.4
20260507043047 39 0 0.0 0.0 0.00 0.00 0.00 63 1014.5
20260507041546 39 0 0.0 0.0 0.00 0.00 0.00 60 1014.6
20260507040040 39 0 0.0 0.0 0.00 0.00 0.00 58 1014.7
20260507034549 40 0 0.0 0.0 0.00 0.00 0.00 57 1014.7
20260507033053 40 0 0.0 2.0 0.00 0.00 0.00 56 1014.7
20260507031543 40 0 0.0 0.0 0.00 0.00 0.00 56 1014.9
20260507030041 41 0 0.0 0.0 0.00 0.00 0.00 54 1014.8
20260507024551 41 0 0.0 0.0 0.00 0.00 0.00 54 1014.8
20260507023041 42 0 0.0 3.0 0.00 0.00 0.00 53 1014.9
20260507021555 42 194 1.0 5.0 0.00 0.00 0.00 53 1015.0
20260507020044 42 217 0.0 2.0 0.00 0.00 0.00 52 1015.0
20260507014538 42 0 0.0 3.0 0.00 0.00 0.00 52 1014.9
20260507013041 43 0 0.0 2.0 0.00 0.00 0.00 51 1014.9
20260507011539 43 213 2.0 6.0 0.00 0.00 0.00 50 1014.9
20260507010041 43 212 3.0 10.0 0.00 0.00 0.00 49 1015.0
20260507004544 44 229 2.0 8.0 0.00 0.00 0.00 50 1014.9
20260507003042 44 217 2.0 8.0 0.00 0.00 0.00 50 1015.1
20260507001604 44 209 2.0 8.0 0.00 0.00 0.00 49 1015.0
20260507000040 44 0 2.0 8.0 0.00 0.00 0.00 49 1015.1
20260506234556 44 176 0.0 6.0 0.00 0.00 0.00 49 1015.1
20260506233045 44 0 2.0 7.0 0.00 0.00 0.00 48 1015.2
20260506231549 44 216 5.0 11.0 0.00 0.00 0.00 47 1015.3
20260506230041 44 186 3.0 9.0 0.00 0.00 0.00 48 1015.4
20260506224552 44 213 2.0 7.0 0.00 0.00 0.00 49 1015.3
20260506223049 44 209 2.0 9.0 0.00 0.00 0.00 48 1015.4
20260506221536 45 193 2.0 7.0 0.00 0.00 0.00 49 1015.5
20260506220046 44 159 3.0 10.0 0.00 0.00 0.00 49 1015.5
20260506214537 44 186 1.0 5.0 0.00 0.00 0.00 50 1015.5
20260506213040 44 190 4.0 11.0 0.00 0.00 0.00 48 1015.6
20260506211550 44 152 3.0 9.0 0.00 0.00 0.00 49 1015.8
20260506210041 44 221 5.0 11.0 0.00 0.00 0.00 49 1015.8
20260506204540 44 123 3.0 9.0 0.00 0.00 0.00 49 1015.9
20260506203037 44 211 4.0 11.0 0.00 0.00 0.00 50 1016.0
20260506201546 44 186 3.0 11.0 0.00 0.00 0.00 50 1016.1
20260506200043 44 216 3.0 14.0 0.00 0.00 0.00 50 1016.2
20260506194545 43 195 2.0 8.0 0.00 0.00 0.00 51 1016.0
20260506193043 43 284 2.0 8.0 0.00 0.00 0.00 53 1016.2
20260506191547 42 165 2.0 10.0 0.00 0.00 0.00 53 1016.3
20260506190047 41 165 2.0 8.0 0.00 0.00 0.00 54 1016.4
20260506184545 41 234 4.0 11.0 0.00 0.00 0.00 53 1016.4
20260506183043 41 205 2.0 13.0 0.00 0.00 0.00 54 1016.5
20260506181552 41 233 5.0 12.0 0.00 0.00 0.00 54 1016.6
20260506180041 41 172 4.0 13.0 0.00 0.00 0.00 55 1016.5
20260506174545 40 222 4.0 15.0 0.00 0.00 0.00 55 1016.7
20260506173047 41 163 3.0 15.0 0.00 0.00 0.00 56 1016.8